RYR1MC LERS-EBCI

Flight info

Callsign RYR1MC
Flight time N/A
Altitude 34000
Route ARBEK T113 RUTIP DCT OKABI DCT TOU DCT ADABI DCT BOKNO UN858 VANAD UN874 BAMES UT191 PODEM UN873 BAZOS DCT BELDI DCT VEKIN Z173 ARVOL
Aircraft B738/M-SDE2E3FGHIRWXY/LB1

Departure

Time 2026-05-08 17:50
Airport Reus Airport (LERS)

Arrival

Time N/A
Airport Brussels South Charleroi Airport (EBCI)
Time Latitude Longitude Altitude Speed Heading
2026-05-08 17:30 41.14724 1.15750 240 ft 0 kts 339°
2026-05-08 17:41 41.14715 1.15755 241 ft 2 kts 339°
2026-05-08 17:42 41.14700 1.15763 241 ft 2 kts 339°
2026-05-08 17:42 41.14684 1.15770 241 ft 2 kts 339°
2026-05-08 17:42 41.14669 1.15778 241 ft 2 kts 338°
2026-05-08 17:42 41.14654 1.15779 241 ft 2 kts 36°
2026-05-08 17:43 41.14642 1.15765 241 ft 2 kts 59°
2026-05-08 17:43 41.14639 1.15760 241 ft 0 kts 71°
2026-05-08 17:44 41.14640 1.15764 241 ft 2 kts 71°
2026-05-08 17:44 41.14649 1.15799 241 ft 5 kts 72°
2026-05-08 17:45 41.14663 1.15849 240 ft 6 kts 70°
2026-05-08 17:45 41.14680 1.15906 240 ft 7 kts 68°
2026-05-08 17:45 41.14699 1.15970 240 ft 8 kts 69°
2026-05-08 17:45 41.14720 1.16044 240 ft 9 kts 69°
2026-05-08 17:46 41.14744 1.16126 241 ft 10 kts 69°
2026-05-08 17:46 41.14771 1.16218 241 ft 12 kts 69°
2026-05-08 17:46 41.14805 1.16334 240 ft 16 kts 69°
2026-05-08 17:46 41.14849 1.16485 240 ft 19 kts 69°
2026-05-08 17:47 41.14901 1.16664 241 ft 22 kts 68°
2026-05-08 17:47 41.14961 1.16869 241 ft 25 kts 69°
2026-05-08 17:47 41.15027 1.17092 241 ft 27 kts 68°
2026-05-08 17:47 41.15073 1.17251 240 ft 28 kts 69°
2026-05-08 17:48 41.15171 1.17588 240 ft 30 kts 69°
2026-05-08 17:48 41.15250 1.17856 240 ft 32 kts 72°
2026-05-08 17:48 41.15327 1.18118 240 ft 29 kts 70°
2026-05-08 17:48 41.15331 1.18233 240 ft 3 kts 142°
2026-05-08 17:49 41.15298 1.18256 240 ft 8 kts 156°
2026-05-08 17:49 41.15232 1.18287 240 ft 11 kts 170°
2026-05-08 17:49 41.15180 1.18222 240 ft 11 kts 247°
2026-05-08 17:49 41.15118 1.18014 241 ft 55 kts 249°
2026-05-08 17:50 41.14888 1.17228 241 ft 125 kts 249°
2026-05-08 17:50 41.14508 1.15933 419 ft 163 kts 247°
2026-05-08 17:50 41.14070 1.14550 1176 ft 163 kts 237°
2026-05-08 17:50 41.13391 1.13288 1787 ft 174 kts 231°
2026-05-08 17:51 41.12690 1.11823 2209 ft 201 kts 237°
2026-05-08 17:51 41.11950 1.10143 2698 ft 216 kts 238°
2026-05-08 17:51 41.11199 1.08376 3353 ft 220 kts 238°
2026-05-08 17:51 41.10450 1.06572 4097 ft 223 kts 239°
2026-05-08 17:52 41.09722 1.04789 5037 ft 220 kts 239°
2026-05-08 17:52 41.08974 1.02941 5522 ft 240 kts 239°
2026-05-08 17:52 41.07286 0.98726 6664 ft 268 kts 240°
2026-05-08 17:53 41.06403 0.96506 7534 ft 269 kts 240°
2026-05-08 17:53 41.05540 0.94316 8322 ft 273 kts 244°
2026-05-08 17:53 41.05160 0.91859 9172 ft 279 kts 274°
2026-05-08 17:53 41.05808 0.89414 9958 ft 287 kts 301°
2026-05-08 17:54 41.07201 0.87435 10372 ft 309 kts 322°
2026-05-08 17:54 41.09221 0.86134 10575 ft 338 kts 343°
2026-05-08 17:54 41.11622 0.85648 10743 ft 363 kts 357°
2026-05-08 17:54 41.14199 0.86106 11074 ft 380 kts 13°
2026-05-08 17:55 41.16723 0.87165 11633 ft 388 kts 18°
2026-05-08 17:55 41.19265 0.88411 12365 ft 391 kts 19°
2026-05-08 17:55 41.21825 0.89679 13091 ft 394 kts 19°
2026-05-08 17:55 41.24424 0.90922 13790 ft 399 kts 18°
2026-05-08 17:56 41.27066 0.92129 14406 ft 404 kts 17°
2026-05-08 17:56 41.29752 0.93313 15058 ft 409 kts 15°
2026-05-08 17:56 41.32486 0.94489 15718 ft 414 kts 15°
2026-05-08 17:56 41.35243 0.95657 16346 ft 418 kts 14°
2026-05-08 17:57 41.38044 0.96835 16972 ft 423 kts 14°
2026-05-08 17:57 41.40867 0.98018 17583 ft 428 kts 13°
2026-05-08 17:57 41.43688 0.99199 18188 ft 433 kts 13°
2026-05-08 17:57 41.46574 1.00410 18718 ft 436 kts 13°
2026-05-08 17:58 41.49487 1.01635 18973 ft 439 kts 13°
2026-05-08 17:58 41.52412 1.02866 18977 ft 440 kts 13°
2026-05-08 17:58 41.55305 1.04086 18988 ft 440 kts 13°
2026-05-08 17:58 41.58265 1.05335 19171 ft 446 kts 13°
2026-05-08 17:59 41.61209 1.06577 19756 ft 448 kts 13°
2026-05-08 17:59 41.64190 1.07838 20363 ft 449 kts 13°
2026-05-08 17:59 41.67186 1.09106 20902 ft 453 kts 13°
2026-05-08 17:59 41.70201 1.10382 21390 ft 457 kts 13°
2026-05-08 18:00 41.73211 1.11657 21861 ft 461 kts 13°
2026-05-08 18:00 41.79382 1.14277 22814 ft 468 kts 13°
2026-05-08 18:00 41.82501 1.15603 23278 ft 472 kts 13°
2026-05-08 18:01 41.85631 1.16936 23693 ft 475 kts 13°
2026-05-08 18:01 41.88807 1.18290 24099 ft 478 kts 13°
2026-05-08 18:01 41.91983 1.19646 24553 ft 479 kts 13°
2026-05-08 18:01 41.95164 1.21006 24971 ft 481 kts 13°
2026-05-08 18:02 41.98364 1.22375 25352 ft 483 kts 13°
2026-05-08 18:02 42.00484 1.23282 25599 ft 485 kts 13°
2026-05-08 18:02 42.04766 1.25116 26090 ft 488 kts 13°
2026-05-08 18:02 42.08013 1.26509 26472 ft 490 kts 13°
2026-05-08 18:03 42.11273 1.27909 26814 ft 492 kts 13°
2026-05-08 18:03 42.14549 1.29316 27160 ft 495 kts 14°
2026-05-08 18:03 42.17831 1.30729 27554 ft 496 kts 13°
2026-05-08 18:03 42.21137 1.32153 27872 ft 498 kts 13°
2026-05-08 18:04 42.24443 1.33579 28200 ft 500 kts 14°
2026-05-08 18:04 42.27716 1.34993 28578 ft 499 kts 14°
2026-05-08 18:04 42.31026 1.36425 29042 ft 497 kts 14°
2026-05-08 18:04 42.34314 1.37849 29562 ft 495 kts 14°
2026-05-08 18:05 42.37591 1.39268 30013 ft 494 kts 14°
2026-05-08 18:05 42.40870 1.40689 30333 ft 495 kts 14°
2026-05-08 18:05 42.44157 1.42115 30615 ft 496 kts 14°
2026-05-08 18:05 42.47449 1.43543 30993 ft 496 kts 14°
2026-05-08 18:06 42.50717 1.44798 31401 ft 492 kts 11°
2026-05-08 18:06 42.54041 1.45895 31688 ft 493 kts 10°
2026-05-08 18:06 42.57397 1.46981 31924 ft 495 kts 10°
2026-05-08 18:06 42.60771 1.47834 32278 ft 490 kts
2026-05-08 18:07 42.64162 1.48074 32585 ft 486 kts 354°
2026-05-08 18:07 42.67513 1.47642 32895 ft 482 kts 348°
2026-05-08 18:07 42.70840 1.47047 33243 ft 482 kts 348°
2026-05-08 18:07 42.74165 1.46453 33600 ft 482 kts 348°
2026-05-08 18:08 42.77487 1.45875 33939 ft 479 kts 349°
2026-05-08 18:08 42.80766 1.45321 33943 ft 482 kts 349°
2026-05-08 18:08 42.87428 1.44226 33956 ft 481 kts 349°
2026-05-08 18:09 42.94092 1.43151 33935 ft 481 kts 350°
2026-05-08 18:09 43.00750 1.42075 33923 ft 481 kts 350°
2026-05-08 18:10 43.07347 1.41003 33927 ft 481 kts 350°
2026-05-08 18:10 43.14000 1.39918 33919 ft 481 kts 350°
2026-05-08 18:11 43.20646 1.38830 33918 ft 481 kts 351°
2026-05-08 18:11 43.27300 1.37739 33917 ft 481 kts 351°
2026-05-08 18:12 43.33908 1.36654 33925 ft 482 kts 351°
2026-05-08 18:12 43.40572 1.35557 33928 ft 482 kts 351°
2026-05-08 18:13 43.47266 1.34453 33934 ft 485 kts 352°
2026-05-08 18:13 43.48786 1.34202 33937 ft 485 kts 352°
2026-05-08 18:14 43.54366 1.33279 33941 ft 486 kts 352°
2026-05-08 18:14 43.61108 1.32161 33945 ft 488 kts 352°
2026-05-08 18:15 43.67860 1.31038 33934 ft 489 kts 352°
2026-05-08 18:15 43.74524 1.29527 33937 ft 488 kts 348°
2026-05-08 18:16 43.81204 1.27721 33932 ft 489 kts 348°
2026-05-08 18:16 43.87889 1.25916 33930 ft 489 kts 349°
2026-05-08 18:17 43.94571 1.24159 33925 ft 489 kts 349°
2026-05-08 18:17 44.01231 1.22430 33923 ft 490 kts 350°
2026-05-08 18:18 44.07986 1.20676 33920 ft 491 kts 350°
2026-05-08 18:18 44.14701 1.18927 33925 ft 491 kts 350°
2026-05-08 18:19 44.21393 1.17178 33928 ft 492 kts 350°
2026-05-08 18:19 44.28145 1.15408 33923 ft 493 kts 350°
2026-05-08 18:20 44.34869 1.13641 33925 ft 494 kts 350°
2026-05-08 18:20 44.41634 1.11860 33924 ft 495 kts 350°
2026-05-08 18:21 44.48402 1.10074 33931 ft 495 kts 350°
2026-05-08 18:21 44.55168 1.08284 33927 ft 495 kts 350°
2026-05-08 18:22 44.61943 1.06487 33929 ft 495 kts 350°
2026-05-08 18:22 44.68713 1.04688 33930 ft 494 kts 350°
2026-05-08 18:23 44.75476 1.02885 33922 ft 493 kts 350°
2026-05-08 18:23 44.82167 1.01099 33929 ft 492 kts 350°
2026-05-08 18:24 44.88874 0.99303 33932 ft 491 kts 350°
2026-05-08 18:24 44.95586 0.97502 33926 ft 489 kts 350°
2026-05-08 18:25 45.01934 0.95795 33920 ft 488 kts 350°
2026-05-08 18:25 45.08601 0.93997 33912 ft 487 kts 350°
2026-05-08 18:26 45.15242 0.92203 33916 ft 485 kts 350°
2026-05-08 18:26 45.21876 0.90406 33912 ft 485 kts 350°
2026-05-08 18:27 45.27367 0.88915 33913 ft 484 kts 350°
2026-05-08 18:27 45.35099 0.86812 33924 ft 483 kts 350°
2026-05-08 18:28 45.41674 0.85018 33934 ft 482 kts 350°
2026-05-08 18:28 45.48222 0.83227 33939 ft 482 kts 350°
2026-05-08 18:29 45.54820 0.81419 33952 ft 481 kts 349°
2026-05-08 18:29 45.61421 0.79605 33957 ft 481 kts 349°
2026-05-08 18:30 45.67913 0.77817 33960 ft 480 kts 349°
2026-05-08 18:30 45.74528 0.75991 33964 ft 480 kts 349°
2026-05-08 18:31 45.81027 0.74192 33963 ft 479 kts 349°
2026-05-08 18:31 45.87588 0.72373 33960 ft 479 kts 349°
2026-05-08 18:32 45.94141 0.70550 33958 ft 479 kts 349°
2026-05-08 18:32 46.00674 0.68729 33958 ft 479 kts 349°
2026-05-08 18:33 46.07203 0.66905 33952 ft 479 kts 349°
2026-05-08 18:33 46.13762 0.65068 33955 ft 478 kts 349°
2026-05-08 18:34 46.20280 0.63238 33950 ft 478 kts 348°
2026-05-08 18:34 46.26837 0.61393 33947 ft 478 kts 348°
2026-05-08 18:35 46.33292 0.59571 33964 ft 478 kts 348°
2026-05-08 18:35 46.39843 0.57719 33950 ft 478 kts 348°
2026-05-08 18:36 46.46387 0.55863 33956 ft 478 kts 348°
2026-05-08 18:36 46.52914 0.54038 33957 ft 478 kts 351°
2026-05-08 18:37 46.59529 0.54053 33952 ft 479 kts 10°
2026-05-08 18:37 46.66007 0.56238 33954 ft 479 kts 13°
2026-05-08 18:38 46.72550 0.58501 33951 ft 479 kts 13°
2026-05-08 18:38 46.79118 0.60695 33962 ft 479 kts 12°
2026-05-08 18:39 46.85533 0.62816 33950 ft 480 kts 12°
2026-05-08 18:39 46.92044 0.64976 33971 ft 480 kts 12°
2026-05-08 18:40 46.98564 0.67149 33968 ft 479 kts 12°
2026-05-08 18:40 47.05035 0.69262 33960 ft 478 kts
2026-05-08 18:41 47.11636 0.70128 33970 ft 476 kts
2026-05-08 18:41 47.18259 0.70663 33991 ft 475 kts
2026-05-08 18:42 47.24870 0.71293 33990 ft 474 kts
2026-05-08 18:42 47.31448 0.71983 33994 ft 474 kts
2026-05-08 18:43 47.37971 0.72690 33992 ft 473 kts
2026-05-08 18:43 47.41215 0.73566 33983 ft 475 kts 15°
2026-05-08 18:43 47.44330 0.75196 34009 ft 475 kts 19°
2026-05-08 18:44 47.50500 0.78689 34002 ft 474 kts 19°
2026-05-08 18:44 47.56685 0.82137 33989 ft 473 kts 19°
2026-05-08 18:45 47.62859 0.85520 33995 ft 473 kts 18°
2026-05-08 18:45 47.69000 0.88868 33997 ft 472 kts 18°
2026-05-08 18:46 47.75159 0.92232 33999 ft 471 kts 18°
2026-05-08 18:46 47.81152 0.96210 34007 ft 473 kts 27°
2026-05-08 18:47 47.86815 1.01095 33985 ft 473 kts 28°
2026-05-08 18:47 47.92499 1.06032 33999 ft 472 kts 28°
2026-05-08 18:48 47.98193 1.10894 33996 ft 471 kts 27°
2026-05-08 18:48 48.03898 1.15725 33998 ft 470 kts 27°
2026-05-08 18:49 48.09573 1.20533 34004 ft 470 kts 27°
2026-05-08 18:49 48.15259 1.25363 34005 ft 469 kts 27°
2026-05-08 18:50 48.20942 1.30207 34012 ft 469 kts 27°
2026-05-08 18:50 48.26566 1.35013 34013 ft 468 kts 27°
2026-05-08 18:51 48.32231 1.39867 34020 ft 467 kts 27°
2026-05-08 18:51 48.37878 1.44719 34021 ft 467 kts 27°
2026-05-08 18:52 48.43508 1.49567 34028 ft 466 kts 27°
2026-05-08 18:52 48.49140 1.54431 34025 ft 465 kts 27°
2026-05-08 18:53 48.54726 1.59267 34040 ft 464 kts 27°
2026-05-08 18:53 48.60331 1.64132 34033 ft 463 kts 27°
2026-05-08 18:54 48.65884 1.68964 34038 ft 462 kts 27°
2026-05-08 18:54 48.71273 1.73666 34048 ft 461 kts 27°
2026-05-08 18:55 48.79546 1.80907 34049 ft 459 kts 26°
2026-05-08 18:56 48.85077 1.85763 34054 ft 457 kts 26°
2026-05-08 18:56 48.90561 1.90590 34051 ft 456 kts 26°
2026-05-08 18:57 48.96041 1.95426 34051 ft 455 kts 26°
2026-05-08 18:57 49.01517 2.00271 34046 ft 454 kts 26°
2026-05-08 18:58 49.06970 2.05108 34060 ft 452 kts 26°
2026-05-08 18:58 49.12402 2.09939 34051 ft 451 kts 26°
2026-05-08 18:59 49.17822 2.14770 34047 ft 450 kts 26°
2026-05-08 18:59 49.23235 2.19610 34052 ft 449 kts 26°
2026-05-08 19:00 49.27684 2.23596 34048 ft 449 kts 26°
2026-05-08 19:00 49.33981 2.29252 34051 ft 448 kts 26°
2026-05-08 19:01 49.38453 2.33279 34051 ft 448 kts 26°
2026-05-08 19:01 49.43830 2.38133 34053 ft 447 kts 26°
2026-05-08 19:02 49.49185 2.42979 34055 ft 446 kts 26°
2026-05-08 19:02 49.54538 2.47837 34055 ft 446 kts 26°
2026-05-08 19:03 49.59877 2.52693 34059 ft 445 kts 26°
2026-05-08 19:03 49.65168 2.57519 34076 ft 444 kts 26°
2026-05-08 19:04 49.70501 2.62396 34069 ft 444 kts 26°
2026-05-08 19:04 49.75809 2.67261 34073 ft 443 kts 26°
2026-05-08 19:05 49.81110 2.72133 33961 ft 445 kts 26°
2026-05-08 19:05 49.83778 2.74587 33664 ft 445 kts 26°
2026-05-08 19:05 49.86438 2.77040 33401 ft 444 kts 26°
2026-05-08 19:05 49.89088 2.79488 33142 ft 445 kts 26°
2026-05-08 19:06 49.91725 2.81925 32883 ft 445 kts 26°
2026-05-08 19:06 49.94383 2.84386 32628 ft 445 kts 26°
2026-05-08 19:06 49.97052 2.86859 32367 ft 445 kts 26°
2026-05-08 19:06 49.99717 2.89333 32108 ft 445 kts 26°
2026-05-08 19:07 50.02374 2.91801 31845 ft 445 kts 26°
2026-05-08 19:07 50.05036 2.94279 31604 ft 445 kts 26°
2026-05-08 19:07 50.07694 2.96756 31357 ft 445 kts 26°
2026-05-08 19:07 50.10356 2.99238 31106 ft 445 kts 26°
2026-05-08 19:08 50.13015 3.01723 30861 ft 445 kts 26°
2026-05-08 19:08 50.15640 3.04181 30374 ft 437 kts 26°
2026-05-08 19:08 50.18251 3.06627 29406 ft 439 kts 27°
2026-05-08 19:08 50.20880 3.09089 28207 ft 444 kts 27°
2026-05-08 19:09 50.23548 3.11592 26912 ft 451 kts 29°
2026-05-08 19:09 50.26056 3.14473 26628 ft 441 kts 39°
2026-05-08 19:09 50.28197 3.17957 26358 ft 451 kts 47°
2026-05-08 19:09 50.30102 3.22004 25593 ft 475 kts 56°
2026-05-08 19:10 50.31715 3.26414 24930 ft 467 kts 59°
2026-05-08 19:10 50.33313 3.30846 24094 ft 463 kts 59°
2026-05-08 19:10 50.34897 3.35190 23269 ft 457 kts 59°
2026-05-08 19:10 50.36464 3.39441 22438 ft 451 kts 59°
2026-05-08 19:11 50.38028 3.43655 21695 ft 444 kts 59°
2026-05-08 19:11 50.39576 3.47812 20957 ft 437 kts 59°
2026-05-08 19:11 50.41085 3.51860 20221 ft 432 kts 59°
2026-05-08 19:11 50.42611 3.55962 19492 ft 428 kts 59°
2026-05-08 19:12 50.44086 3.59931 18793 ft 424 kts 59°
2026-05-08 19:12 50.45564 3.63916 18048 ft 421 kts 60°
2026-05-08 19:12 50.47030 3.67877 17267 ft 418 kts 60°
2026-05-08 19:12 50.48477 3.71796 16543 ft 413 kts 60°
2026-05-08 19:13 50.49914 3.75691 15836 ft 409 kts 60°
2026-05-08 19:13 50.51330 3.79537 15134 ft 405 kts 60°
2026-05-08 19:13 50.52613 3.83027 14510 ft 402 kts 60°
2026-05-08 19:13 50.54010 3.86830 13816 ft 399 kts 60°
2026-05-08 19:14 50.55391 3.90598 13059 ft 395 kts 60°
2026-05-08 19:14 50.56759 3.94335 12348 ft 392 kts 60°
2026-05-08 19:14 50.58091 3.97980 11479 ft 392 kts 60°
2026-05-08 19:14 50.59444 4.01687 11058 ft 382 kts 60°
2026-05-08 19:15 50.60746 4.05258 10751 ft 369 kts 60°
2026-05-08 19:15 50.61997 4.08694 10579 ft 354 kts 60°
2026-05-08 19:15 50.62812 4.10935 10471 ft 345 kts 60°
2026-05-08 19:16 50.63840 4.13761 10342 ft 334 kts 60°
2026-05-08 19:16 50.64654 4.16452 10084 ft 326 kts 74°
2026-05-08 19:16 50.64846 4.19041 9612 ft 322 kts 96°
2026-05-08 19:16 50.64168 4.22300 8963 ft 318 kts 123°
2026-05-08 19:17 50.62712 4.24918 8371 ft 312 kts 142°
2026-05-08 19:17 50.60891 4.26618 7774 ft 308 kts 160°
2026-05-08 19:17 50.58856 4.27269 7631 ft 288 kts 178°
2026-05-08 19:17 50.56921 4.27005 7427 ft 272 kts 195°
2026-05-08 19:18 50.55180 4.25929 6969 ft 268 kts 206°
2026-05-08 19:18 50.53551 4.24577 6732 ft 256 kts 208°
2026-05-08 19:18 50.52034 4.23286 6648 ft 238 kts 208°
2026-05-08 19:18 50.50953 4.22377 6405 ft 230 kts 208°
2026-05-08 19:19 50.49554 4.21215 5783 ft 231 kts 207°
2026-05-08 19:19 50.48128 4.20040 5134 ft 232 kts 206°
2026-05-08 19:19 50.46684 4.18858 4581 ft 233 kts 206°
2026-05-08 19:19 50.45266 4.17826 4392 ft 221 kts 193°
2026-05-08 19:20 50.43785 4.18001 4180 ft 214 kts 158°
2026-05-08 19:20 50.42982 4.18566 4056 ft 211 kts 153°
2026-05-08 19:20 50.41237 4.19826 3745 ft 206 kts 154°
2026-05-08 19:20 50.40117 4.21128 3505 ft 201 kts 121°
2026-05-08 19:21 50.39772 4.23188 3349 ft 198 kts 87°
2026-05-08 19:21 50.40137 4.25273 3147 ft 198 kts 65°
2026-05-08 19:21 50.40732 4.27184 2947 ft 191 kts 66°
2026-05-08 19:21 50.41282 4.29051 2701 ft 186 kts 66°
2026-05-08 19:22 50.41806 4.30852 2469 ft 182 kts 66°
2026-05-08 19:22 50.42323 4.32637 2213 ft 176 kts 66°
2026-05-08 19:22 50.42813 4.34329 2010 ft 163 kts 66°
2026-05-08 19:22 50.43265 4.35890 1788 ft 151 kts 66°
2026-05-08 19:23 50.43676 4.37313 1590 ft 138 kts 66°
2026-05-08 19:23 50.44065 4.38657 1443 ft 139 kts 66°
2026-05-08 19:23 50.44474 4.40069 1231 ft 144 kts 65°
2026-05-08 19:23 50.44887 4.41493 1048 ft 144 kts 65°
2026-05-08 19:24 50.45302 4.42921 847 ft 143 kts 65°
2026-05-08 19:24 50.45710 4.44334 651 ft 141 kts 64°
2026-05-08 19:24 50.46112 4.45723 629 ft 139 kts 64°